FW1302 Weather Reports


time (UTC)temp
C
wind
direction
speed
KPH
gust
KPH
rain 1hr
cm
rain 24hr
cm
rain mn
cm
humidity
%
barometer
mb
20260504044008 20 22 0.0 0.0 0.00 0.00 0.00 52 1018.1
20260504043009 21 22 0.0 0.0 0.00 0.00 0.00 49 1017.9
20260504042009 21 360 4.8 8.0 0.00 0.00 0.00 49 1017.8
20260504041107 20 360 0.0 6.4 0.00 0.00 0.00 52 1017.7
20260504035109 21 315 0.0 0.0 0.00 0.00 0.00 49 1017.4
20260504034109 21 180 0.0 0.0 0.00 0.00 0.00 53 1017.3
20260504032211 21 180 0.0 0.0 0.00 0.00 0.00 51 1016.9
20260504031208 22 180 0.0 0.0 0.00 0.00 0.00 49 1016.9
20260504030207 23 180 0.0 0.0 0.00 0.00 0.00 45 1016.7
20260504030109 23 180 0.0 0.0 0.00 0.00 0.00 45 1016.7
20260504025108 23 180 0.0 0.0 0.00 0.00 0.00 43 1016.7
20260504025010 23 180 0.0 0.0 0.00 0.00 0.00 43 1016.6
20260504024108 24 180 0.0 0.0 0.00 0.00 0.00 40 1016.5
20260504023109 26 225 0.0 0.0 0.00 0.00 0.00 37 1016.5
20260504022207 26 225 1.6 1.6 0.00 0.00 0.00 37 1016.3
20260504021207 25 225 1.6 3.2 0.00 0.00 0.00 38 1016.4
20260504020210 25 247 3.2 4.8 0.00 0.00 0.00 38 1016.3
20260504015309 26 45 0.0 0.0 0.00 0.00 0.00 35 1016.3
20260504014307 28 45 0.0 0.0 0.00 0.00 0.00 32 1016.4
20260504013309 27 38 3.2 8.0 0.00 0.00 0.00 34 1016.4
20260504010307 28 45 11.3 16.1 0.00 0.00 0.00 28 1016.7
20260504005309 28 45 9.7 12.9 0.00 0.00 0.00 29 1016.8
20260504004407 27 45 8.0 9.7 0.00 0.00 0.00 31 1016.9
20260504003408 27 45 9.7 12.9 0.00 0.00 0.00 29 1017.1
20260504002407 28 45 9.7 14.5 0.00 0.00 0.00 28 1017.1
20260504001408 26 45 9.7 12.9 0.00 0.00 0.00 32 1017.2
20260504000408 25 45 11.3 14.5 0.00 0.00 0.00 36 1017.3
20260504000308 25 45 11.3 16.1 0.00 0.00 0.00 37 1017.3
20260503235309 24 45 11.3 14.5 0.00 0.00 0.00 38 1017.3
20260503234408 24 45 14.5 17.7 0.00 0.00 0.00 38 1017.4
20260503233408 23 45 16.1 17.7 0.00 0.00 0.00 40 1017.5
20260503233308 23 45 14.5 17.7 0.00 0.00 0.00 39 1017.5
20260503232407 22 45 12.9 16.1 0.00 0.00 0.00 41 1017.7
20260503231409 26 45 14.5 16.1 0.00 0.00 0.00 32 1017.8
20260503230408 24 49 11.3 16.1 0.00 0.00 0.00 38 1017.8
20260503225409 25 45 14.5 19.3 0.00 0.00 0.00 37 1018.0
20260503224407 23 45 16.1 19.3 0.00 0.00 0.00 41 1018.2
20260503224309 23 45 17.7 22.5 0.00 0.00 0.00 40 1018.2
20260503223407 23 45 17.7 20.9 0.00 0.00 0.00 40 1018.5
20260503222409 23 45 16.1 19.3 0.00 0.00 0.00 42 1018.5
20260503221508 22 45 17.7 22.5 0.00 0.00 0.00 44 1018.8
20260503220508 22 45 17.7 22.5 0.00 0.00 0.00 45 1018.8
20260503214509 22 45 17.7 24.1 0.00 0.00 0.00 46 1019.1
20260503213509 22 45 16.1 20.9 0.00 0.00 0.00 47 1019.3
20260503212509 22 45 17.7 22.5 0.00 0.00 0.00 45 1019.4
20260503211507 20 45 16.1 22.5 0.00 0.00 0.00 54 1019.6
20260503205608 19 45 20.9 27.4 0.00 0.00 0.00 57 1019.9
20260503203707 20 45 19.3 22.5 0.00 0.00 0.00 54 1020.1
20260503202708 20 45 22.5 24.1 0.00 0.00 0.00 52 1020.2
20260503195709 20 45 20.9 25.7 0.00 0.00 0.00 49 1020.6
20260503193807 21 45 24.1 33.8 0.00 0.00 0.00 49 1020.7
20260503192810 21 42 17.7 29.0 0.00 0.00 0.00 49 1020.9
20260503191808 21 46 19.3 25.7 0.00 0.00 0.00 47 1021.0
20260503190810 21 45 12.9 20.9 0.00 0.00 0.00 50 1021.4
20260503185908 21 45 17.7 25.7 0.00 0.00 0.00 50 1021.4
20260503183909 21 49 14.5 29.0 0.00 0.00 0.00 51 1021.4
20260503183008 21 43 12.9 24.1 0.00 0.00 0.00 50 1021.7
20260503182009 21 50 9.7 14.5 0.00 0.00 0.00 52 1022.0
20260503181108 21 72 8.0 17.7 0.00 0.00 0.00 53 1021.9
20260503180109 20 46 14.5 24.1 0.00 0.00 0.00 53 1022.2
20260503175109 20 41 16.1 25.7 0.00 0.00 0.00 55 1022.2
20260503174207 20 45 14.5 20.9 0.00 0.00 0.00 55 1022.3
20260503173208 19 45 16.1 25.7 0.00 0.00 0.00 58 1022.4
20260503172207 18 48 14.5 24.1 0.00 0.00 0.00 57 1022.5
20260503171208 18 45 20.9 30.6 0.00 0.00 0.00 57 1022.4
20260503170208 18 49 16.1 22.5 0.00 0.00 0.00 58 1022.8
20260503160210 15 37 9.7 16.1 0.00 0.00 0.00 69 1023.4
20260503150409 15 45 16.1 22.5 0.00 0.00 0.00 72 1023.5
20260503130808 11 45 0.0 3.2 0.00 0.00 0.00 92 1023.4
20260503080107 13 180 0.0 0.0 0.00 0.00 0.00 92 1023.8
20260503072307 13 180 0.0 0.0 0.00 0.00 0.00 91 1023.9
20260503070308 13 225 0.0 0.0 0.00 0.00 0.00 90 1023.7
20260503060118 15 112 0.0 0.0 0.00 0.00 0.00 86 1023.7
20260503055119 15 118 0.0 6.4 0.00 0.00 0.00 86 1023.8
20260503054117 15 270 0.0 0.0 0.00 0.00 0.00 86 1024.0
20260503053117 15 270 0.0 0.0 0.00 0.00 0.00 86 1023.9
20260503052117 15 270 0.0 0.0 0.00 0.00 0.00 84 1024.0
20260503050118 15 45 0.0 1.6 0.00 0.00 0.00 83 1024.0
20260503044219 16 32 6.4 9.7 0.00 0.00 0.00 80 1024.0